Tracking 19146 objects as of 22-Apr-2018
HD Live streaming from Space Station
objects crossing your sky now

FLOCK 3P 67

Track FLOCK 3P 67 now!
10-day predictions
FLOCK 3P 67 is classified as:


NORAD ID: 42002
Int'l Code: 2017-008BG
Perigee: 494.3 km
Apogee: 504.9 km
Inclination: 97.5 °
Period: 94.5 minutes
Semi major axis: 6870 km
RCS: Unknown
Launch date: February 15, 2017
Source: United States (US)
Launch site: SRIHARIKOTA (SRI)
aabbcc
Your satellite tracking list
Your tracking list is empty




NASA's NSSDC Master Catalog

Two Line Element Set (TLE):
1 42002U 17008BG  18112.49725463  .00003358  00000-0  13968-3 0  9996
2 42002  97.4543 177.7945 0007732 194.1595 165.9426 15.24453071 65630
Source of the keplerian elements: AFSPC